Location: Asheville, NC
(35.6000°N, 82.5500°W)
Time: 00:27:04
(UTC-04:00)

Vanguard 2 - Pass Details

Date: 11 March 2018
Orbit: 554 x 2939 km, 32.9° (Epoch: 24 June)

Event Time Altitude Azimuth Distance (km) Brightness Sun altitude
Rises 11:19:21 0° 222° (SW) 5,470 11.9 38.8°
Reaches altitude 10° 11:22:43 10° 216° (SW) 4,749 11.7 39.3°
Maximum altitude 11:36:23 49° 147° (SSE) 3,338 13.1 41.3°
Drops below altitude 10° 11:53:03 10° 81° (E) 5,725 12.4 43.5°
Sets 11:57:33 0° 76° (ENE) 6,637 12.5 44.1°
